Lincoln Laboratory Near-Earth Asteroid Research project
軌道要素
Orbital elements by K. Muraoka,
from 17 observations 1999 May 17 to 22,
m.e. = +/- 0.71 arc seconds.
T = 1999 May 16.337 TT
Peri. = 8.832
Node = 241.637 (2000.0)
Incl. = 121.310
q = 1.44831 AU
e = 1.0
星図
光度変化
m1 = 19.0 + 5 logΔ + 10.0 log r
軌道要素は村岡健治氏の計算によるものです。
星図は StellaNavigator Ver.2.0 for Windows
(アストロアーツ
編著 / アスキー出版局刊) で作成したものです。
光度グラフはComet for
Windowsで作成したものです。
Copyright(C) Seiichi Yoshida (comet@aerith.net). All rights reserved.